This demonstration page uses our WeatherBlox Daily Observations layout. Learn more.

Left ArrowRight Arrow

Hourly Observations for January 11, 2015

Temp ( °F °C ) Dew Point ( °F °C ) Humidity (%) Winds ( mph kmh ) Pressure ( in mb ) Visibility ( mi km ) Precip ( " mm )
12:52 am 00:52 Mostly Cloudy 20 -6.7 16 -8.9 85 85 N 6 9 30.17 1022 10 16 0.00 0.00
1:52 am 01:52 Mostly Cloudy 18 -7.8 14 -10 84 84 N 7 11 30.17 1022 10 16 0.00 0.00
2:52 am 02:52 Partly Cloudy 17 -8.3 13 -10.6 84 84 N 7 11 30.18 1022 10 16 0.00 0.00
3:52 am 03:52 Partly Cloudy 15 -9.4 12 -11.1 88 88 N 6 9 30.16 1022 10 16 0.00 0.00
4:52 am 04:52 Partly Cloudy 14 -10 11 -11.7 88 88 N 6 9 30.16 1021 10 16 0.00 0.00
5:52 am 05:52 Partly Cloudy 14 -10 11 -11.7 88 88 N 8 13 30.15 1021 10 16 0.00 0.00
6:52 am 06:52 Partly Cloudy 13 -10.6 10 -12.2 88 88 N 6 9 30.16 1021 10 16 0.00 0.00
7:52 am 07:52 Mostly Cloudy 13 -10.6 9 -12.8 84 84 N 9 15 30.17 1022 10 16 0.00 0.00
8:52 am 08:52 Mostly Cloudy 13 -10.6 9 -12.8 84 84 N 7 11 30.18 1022 10 16 0.00 0.00
9:52 am 09:52 Mostly Cloudy 17 -8.3 12 -11.1 80 80 N 3 6 30.20 1023 10 16 0.00 0.00
10:52 am 10:52 Mostly Cloudy 21 -6.1 15 -9.4 78 78 NNW 3 6 30.20 1023 10 16 0.00 0.00
11:52 am 11:52 Mostly Cloudy 25 -3.9 15 -9.4 66 66 Calm 30.18 1022 10 16 0.00 0.00
12:52 pm 12:52 Mostly Cloudy 30 -1.1 17 -8.3 58 58 Calm 30.16 1021 10 16 0.00 0.00
1:52 pm 13:52 Mostly Cloudy 32 0 17 -8.3 54 54 NNW 3 6 30.16 1021 10 16 0.00 0.00
2:52 pm 14:52 Mostly Cloudy 32 0 19 -7.2 59 59 N 9 15 30.17 1022 10 16 0.00 0.00
3:52 pm 15:52 Mostly Cloudy 32 0 19 -7.2 59 59 NNW 12 19 30.20 1023 10 16 0.00 0.00
4:52 pm 16:52 Mostly Cloudy 30 -1.1 19 -7.2 64 64 N 12 19 30.24 1024 10 16 0.00 0.00
5:52 pm 17:52 Mostly Cloudy 26 -3.3 18 -7.8 71 71 N 13 20 30.28 1025 10 16 0.00 0.00
6:52 pm 18:52 Mostly Cloudy 25 -3.9 18 -7.8 75 75 N 10 17 30.31 1027 10 16 0.00 0.00
7:52 pm 19:52 Mostly Cloudy 22 -5.6 15 -9.4 75 75 N 16 26 30.36 1028 10 16 0.00 0.00
8:52 pm 20:52 Cloudy 20 -6.7 12 -11.1 71 71 N 17 28 30.39 1029 10 16 0.00 0.00
9:40 pm 21:40 Cloudy 19 -7 12 -11 73 73 N 15 24 30.45 1031 10 16 0.00 0.00
9:52 pm 21:52 Cloudy 20 -6.7 11 -11.7 68 68 N 14 22 30.42 1030 10 16 0.00 0.00
10:52 pm 22:52 Cloudy 20 -6.7 13 -10.6 74 74 NNW 14 22 30.43 1030 10 16 0.00 0.00
11:30 pm 23:30 Cloudy 19 -7 12 -11 73 73 N 14 22 30.45 1031 10 16 0.00 0.00
11:52 pm 23:52 Mostly Cloudy 18 -7.8 12 -11.1 77 77 N 16 26 30.45 1031 10 16 0.00 0.00

Powered by AerisWeather